When you browse on this site, cookies collect data to enhance your experience and personalize the content and advertising you see.
Visit our Privacy Policy to learn more. By continuing to use the site, you agree to this use of cookies and data.
  • In Lithuania
  • List of Countries
  • For 7 days
  • Water Temperature
  • Weather Map
  • Weather Widgets
  • user-avatar
    Login

    Hourly Weather Boma

    Today, 17 February, Monday

    Time Temperature Precipitation Wind Pressure Humidity
    00:00 +22°C° 0 mm 1 mps 699 mmHg 25%
    01:00 +21°C° 0 mm 1 mps 700 mmHg 24%
    02:00 +20°C° 0 mm 1 mps 699 mmHg 26%
    03:00 +19°C° 0 mm 1 mps 699 mmHg 27%
    04:00 +18°C° 0 mm 1 mps 698 mmHg 29%
    05:00 +16°C° 0 mm 0 mps 699 mmHg 34%
    06:00 +16°C° 0 mm 0 mps 699 mmHg 40%
    07:00 +17°C° 0 mm 0 mps 700 mmHg 51%
    08:00 +21°C° 0 mm 0 mps 701 mmHg 43%
    09:00 +26°C° 0 mm 0 mps 701 mmHg 35%
    10:00 +31°C° 0 mm 0 mps 702 mmHg 27%
    11:00 +34°C° 0 mm 0 mps 701 mmHg 21%
    12:00 +36°C° 0 mm 0 mps 701 mmHg 15%
    13:00 +39°C° 0 mm 0 mps 700 mmHg 9%
    14:00 +42°C° 0 mm 1 mps 699 mmHg 10%
    15:00 +41°C° 0 mm 1 mps 698 mmHg 10%
    16:00 +40°C° 0 mm 1 mps 697 mmHg 10%
    17:00 +36°C° 0 mm 1 mps 697 mmHg 14%
    18:00 +30°C° 0 mm 0 mps 697 mmHg 17%
    19:00 +26°C° 0 mm 0 mps 697 mmHg 21%
    20:00 +25°C° 0 mm 0 mps 698 mmHg 22%
    21:00 +24°C° 0 mm 0 mps 698 mmHg 24%
    22:00 +22°C° 0 mm 0 mps 698 mmHg 25%
    23:00 +24°C° 0 mm 1 mps 699 mmHg 30%

    Tomorrow, 18 February, Tuesday

    Time Temperature Precipitation Wind Pressure Humidity
    00:00 +23°C° 0 mm 1 mps 699 mmHg 35%
    01:00 +22°C° 0 mm 1 mps 699 mmHg 40%
    02:00 +21°C° 0 mm 1 mps 699 mmHg 57%
    03:00 +20°C° 0 mm 1 mps 699 mmHg 75%
    04:00 +18°C° 0 mm 0 mps 698 mmHg 92%
    05:00 +18°C° 0 mm 0 mps 699 mmHg 94%
    06:00 +18°C° 0 mm 0 mps 699 mmHg 95%
    07:00 +19°C° 0 mm 0 mps 700 mmHg 97%
    08:00 +22°C° 0 mm 0 mps 701 mmHg 78%
    09:00 +28°C° 0 mm 1 mps 701 mmHg 60%
    10:00 +32°C° 0 mm 1 mps 702 mmHg 42%
    11:00 +35°C° 0 mm 1 mps 701 mmHg 32%
    12:00 +39°C° 0 mm 1 mps 701 mmHg 23%
    13:00 +43°C° 0 mm 1 mps 700 mmHg 13%
    14:00 +42°C° 0 mm 1 mps 699 mmHg 13%
    15:00 +41°C° 0 mm 1 mps 699 mmHg 14%
    16:00 +40°C° 0 mm 1 mps 698 mmHg 14%
    17:00 +36°C° 0 mm 1 mps 698 mmHg 19%
    18:00 +33°C° 0 mm 1 mps 698 mmHg 23%
    19:00 +30°C° 0 mm 1 mps 698 mmHg 27%
    20:00 +29°C° 0 mm 1 mps 698 mmHg 30%
    21:00 +27°C° 0 mm 1 mps 699 mmHg 33%
    22:00 +24°C° 0 mm 0 mps 699 mmHg 36%
    23:00 +22°C° 0 mm 0 mps 699 mmHg 39%

    Day after tomorrow, 19 February, Wednesday

    Time Temperature Precipitation Wind Pressure Humidity
    00:00 +21°C° 0 mm 0 mps 699 mmHg 42%
    01:00 +20°C° 0 mm 0 mps 699 mmHg 45%
    02:00 +19°C° 0 mm 0 mps 699 mmHg 55%
    03:00 +20°C° 0 mm 1 mps 698 mmHg 64%
    04:00 +19°C° 0 mm 1 mps 698 mmHg 74%
    05:00 +17°C° 0 mm 0 mps 698 mmHg 76%
    06:00 +17°C° 0 mm 0 mps 699 mmHg 79%
    07:00 +17°C° 0 mm 0 mps 699 mmHg 82%
    08:00 +22°C° 0 mm 0 mps 700 mmHg 63%
    09:00 +28°C° 0 mm 1 mps 701 mmHg 43%
    10:00 +33°C° 0 mm 1 mps 702 mmHg 24%
    11:00 +35°C° 0 mm 1 mps 701 mmHg 20%
    12:00 +37°C° 0 mm 1 mps 701 mmHg 16%
    13:00 +40°C° 0 mm 2 mps 700 mmHg 12%
    14:00 +40°C° 0 mm 2 mps 699 mmHg 13%
    15:00 +40°C° 0 mm 2 mps 698 mmHg 13%
    16:00 +40°C° 0 mm 2 mps 697 mmHg 14%
    17:00 +35°C° 0 mm 1 mps 697 mmHg 19%
    18:00 +32°C° 0 mm 1 mps 697 mmHg 23%
    19:00 +26°C° 0 mm 0 mps 697 mmHg 27%
    20:00 +25°C° 0 mm 0 mps 697 mmHg 29%
    21:00 +24°C° 0 mm 0 mps 698 mmHg 30%
    22:00 +22°C° 0 mm 0 mps 698 mmHg 32%
    23:00 +21°C° 0 mm 0 mps 698 mmHg 32%

    20 February, Thursday

    Time Temperature Precipitation Wind Pressure Humidity
    00:00 +20°C° 0 mm 0 mps 698 mmHg 33%
    01:00 +19°C° 0 mm 0 mps 698 mmHg 34%
    02:00 +18°C° 0 mm 0 mps 698 mmHg 35%
    03:00 +17°C° 0 mm 0 mps 698 mmHg 37%
    04:00 +16°C° 0 mm 0 mps 697 mmHg 39%
    05:00 +16°C° 0 mm 0 mps 698 mmHg 39%
    06:00 +16°C° 0 mm 0 mps 698 mmHg 40%
    07:00 +16°C° 0 mm 0 mps 698 mmHg 40%
    08:00 +22°C° 0 mm 0 mps 699 mmHg 32%
    09:00 +27°C° 0 mm 0 mps 700 mmHg 23%
    10:00 +35°C° 0 mm 1 mps 701 mmHg 15%
    11:00 +37°C° 0 mm 1 mps 700 mmHg 13%
    12:00 +40°C° 0 mm 1 mps 699 mmHg 11%
    13:00 +42°C° 0 mm 1 mps 699 mmHg 10%
    14:00 +42°C° 0 mm 1 mps 698 mmHg 10%
    15:00 +41°C° 0 mm 1 mps 697 mmHg 11%
    16:00 +41°C° 0 mm 1 mps 696 mmHg 11%
    17:00 +37°C° 0 mm 1 mps 696 mmHg 14%
    18:00 +33°C° 0 mm 1 mps 696 mmHg 18%
    19:00 +30°C° 0 mm 1 mps 696 mmHg 21%
    20:00 +29°C° 0 mm 1 mps 697 mmHg 22%
    21:00 +28°C° 0 mm 1 mps 697 mmHg 23%
    22:00 +27°C° 0 mm 1 mps 698 mmHg 23%
    23:00 +27°C° 0 mm 1 mps 698 mmHg 24%

    21 February, Friday

    Time Temperature Precipitation Wind Pressure Humidity
    00:00 +26°C° 0 mm 1 mps 698 mmHg 25%
    01:00 +25°C° 0 mm 1 mps 698 mmHg 26%
    02:00 +23°C° 0 mm 1 mps 698 mmHg 37%
    03:00 +22°C° 0 mm 1 mps 698 mmHg 47%
    04:00 +18°C° 0 mm 0 mps 697 mmHg 58%
    05:00 +18°C° 0 mm 0 mps 698 mmHg 66%
    06:00 +18°C° 0 mm 0 mps 698 mmHg 74%
    07:00 +18°C° 0 mm 0 mps 698 mmHg 81%
    14:00 +40°C° 0 mm 2 mps 698 mmHg 12%
    15:00 +40°C° 0 mm 2 mps 697 mmHg 12%
    16:00 +40°C° 0 mm 2 mps 697 mmHg 12%
    17:00 +36°C° 0 mm 1 mps 697 mmHg 16%
    18:00 +33°C° 0 mm 1 mps 696 mmHg 20%
    19:00 +27°C° 0 mm 0 mps 696 mmHg 24%
    20:00 +28°C° 0 mm 1 mps 697 mmHg 26%
    21:00 +27°C° 0 mm 1 mps 697 mmHg 27%
    22:00 +26°C° 0 mm 1 mps 698 mmHg 29%
    23:00 +25°C° 0 mm 1 mps 698 mmHg 30%

    22 February, Saturday

    Time Temperature Precipitation Wind Pressure Humidity
    00:00 +24°C° 0 mm 1 mps 698 mmHg 31%
    01:00 +21°C° 0 mm 0 mps 698 mmHg 33%
    02:00 +20°C° 0 mm 0 mps 698 mmHg 39%
    03:00 +19°C° 0 mm 0 mps 698 mmHg 46%
    04:00 +18°C° 0 mm 0 mps 697 mmHg 53%
    05:00 +18°C° 0 mm 0 mps 698 mmHg 62%
    06:00 +18°C° 0 mm 0 mps 698 mmHg 71%
    07:00 +18°C° 0 mm 0 mps 699 mmHg 80%
    08:00 +23°C° 0 mm 0 mps 700 mmHg 65%
    09:00 +28°C° 0 mm 0 mps 701 mmHg 49%
    10:00 +32°C° 0 mm 0 mps 702 mmHg 34%
    11:00 +36°C° 0 mm 1 mps 701 mmHg 27%
    12:00 +39°C° 0 mm 2 mps 700 mmHg 19%
    13:00 +42°C° 0 mm 3 mps 699 mmHg 12%
    14:00 +41°C° 0 mm 2 mps 698 mmHg 12%
    15:00 +41°C° 0 mm 2 mps 698 mmHg 12%
    16:00 +42°C° 0 mm 2 mps 697 mmHg 11%
    17:00 +37°C° 0 mm 1 mps 697 mmHg 15%
    18:00 +34°C° 0 mm 1 mps 697 mmHg 19%
    19:00 +28°C° 0 mm 0 mps 697 mmHg 22%
    20:00 +27°C° 0 mm 0 mps 697 mmHg 24%
    21:00 +26°C° 0 mm 0 mps 698 mmHg 26%
    22:00 +25°C° 0 mm 0 mps 699 mmHg 28%
    23:00 +24°C° 0 mm 0 mps 699 mmHg 34%
    Show more